This is the latest recevied weather packets stored in our database for station/object G4KVI. If no packets are shown the sender has not sent any weather packets the latest 10 day(s).
| Time | Temp. | Humidity | Pressure | Rain* | Wind** | Luminosity | Snow |
|---|---|---|---|---|---|---|---|
| 1788379219 | 18.89° C | 86% | 1019.2 hPa | 0 mm | - | 0 W/m² | - |
| 1788378903 | 18.89° C | 86% | 1019.3 hPa | 0 mm | - | 0 W/m² | - |
| 1788378603 | 18.89° C | 85% | 1019 hPa | 0 mm | - | 0 W/m² | - |
| 1788378303 | 18.89° C | 85% | 1018.9 hPa | 0 mm | - | 0 W/m² | - |
| 1788378003 | 18.89° C | 85% | 1019 hPa | 0 mm | - | 0 W/m² | - |
| 1788377703 | 18.89° C | 86% | 1019 hPa | 0 mm | - | 0 W/m² | - |
| 1788377403 | 18.89° C | 87% | 1018.9 hPa | 0 mm | - | 0 W/m² | - |
| 1788377104 | 18.89° C | 87% | 1018.7 hPa | 0 mm | - | 0 W/m² | - |
| 1788376804 | 18.89° C | 87% | 1018.5 hPa | 0 mm | - | 0 W/m² | - |
| 1788376504 | 18.89° C | 88% | 1018.6 hPa | 0 mm | - | 0 W/m² | - |
| 1788376204 | 18.89° C | 88% | 1018.3 hPa | 0 mm | - | 0 W/m² | - |
| 1788375904 | 18.89° C | 88% | 1018.6 hPa | 0 mm | - | 0 W/m² | - |
| 1788375604 | 18.89° C | 88% | 1018.7 hPa | 0 mm | - | 1 W/m² | - |
| 1788375304 | 18.89° C | 87% | 1018.9 hPa | 0 mm | - | 2 W/m² | - |
| 1788375004 | 18.89° C | 87% | 1018.8 hPa | 0 mm | - | 3 W/m² | - |
| 1788374704 | 18.89° C | 87% | 1018.7 hPa | 0 mm | - | 6 W/m² | - |
| 1788374404 | 18.89° C | 87% | 1018.5 hPa | 0 mm | - | 12 W/m² | - |
| 1788374104 | 18.89° C | 87% | 1018.7 hPa | 0 mm | - | 16 W/m² | - |
| 1788373804 | 18.89° C | 87% | 1018.5 hPa | 0 mm | - | 14 W/m² | - |
| 1788373504 | 18.89° C | 88% | 1018.5 hPa | 0 mm | - | 13 W/m² | - |
| 1788373204 | 18.89° C | 89% | 1018.6 hPa | 0 mm | - | 14 W/m² | - |
| 1788372904 | 18.89° C | 90% | 1018.4 hPa | 0 mm | - | 22 W/m² | - |
| 1788372604 | 18.89° C | 91% | 1018.5 hPa | 0 mm | - | 35 W/m² | - |
| 1788372304 | 19.44° C | 91% | 1018.3 hPa | 0 mm | - | 44 W/m² | - |
| 1788372004 | 19.44° C | 92% | 1018.3 hPa | 0 mm | - | 35 W/m² | - |
* Rain latest hour (hover to see other rain measurements)
** Current wind speed in m/s (hover to see current wind gust speed)